ATLAS CENTAUR 2

Last updated on Sun Jun 21 2026 00:02:14 GMT+0000 (Coordinated Universal Time)

1 00694U 63047A 26171.45988245 .00000848 00000+0 88115-4 0 9997 2 00694 30.3587 341.0931 0546005 266.3690 87.4341 14.12524868146166
UTC large
Height (km)
Speed (km/s)
/
Latitude / Longitude
Inclination (degrees)
Orbital Period (minutes)
Azimuth
Elevation
Range (km)
Doppler Factor

Next 0 passes for location: London (51.5072 / 0.1276)

No passes found over London.
ATLAS CENTAUR 2